Saint Bonnet de Bellac- Haute Vienne - France
Donnes mto: lundi, 05/03/2012
Date Horaire Temp. E. Hum. E. P.atmo. Pluie Vent Direction Direction Ensoleilleme Solaire P. de rose Temp au vent Rafales
05/03/2012 00:00 2,1 C 89 % 1024,8 hPa 0,0 mm 2,9 km/h (1 Bft) O 270 0 min 0 W/m 0,5 C 2,1 C 2,9 km/h (1 Bft)
05/03/2012 00:10 2,2 C 89 % 1025,0 hPa 0,0 mm 3,2 km/h (1 Bft) O-SO 247 0 min 0 W/m 0,6 C 2,2 C 6,5 km/h (2 Bft)
05/03/2012 00:20 2,2 C 89 % 1025,0 hPa 0,0 mm 0,4 km/h (0 Bft) O 270 0 min 0 W/m 0,6 C 2,2 C 0,4 km/h (0 Bft)
05/03/2012 00:30 2,2 C 89 % 1025,2 hPa 0,0 mm 6,1 km/h (2 Bft) O-SO 247 0 min 0 W/m 0,6 C 0,5 C 8,3 km/h (2 Bft)
05/03/2012 00:40 2,3 C 89 % 1025,2 hPa 0,0 mm 0,4 km/h (0 Bft) O-SO 247 0 min 0 W/m 0,7 C 2,3 C 4,0 km/h (1 Bft)
05/03/2012 00:50 2,1 C 89 % 1025,3 hPa 0,0 mm 4,0 km/h (1 Bft) O 270 0 min 0 W/m 0,5 C 2,1 C 7,6 km/h (2 Bft)
05/03/2012 01:00 2,0 C 89 % 1025,5 hPa 0,0 mm 2,5 km/h (1 Bft) O-NO 292 0 min 0 W/m 0,4 C 2,0 C 7,6 km/h (2 Bft)
05/03/2012 01:10 1,9 C 89 % 1025,5 hPa 0,0 mm 2,5 km/h (1 Bft) O-SO 247 0 min 0 W/m 0,3 C 1,9 C 3,2 km/h (1 Bft)
05/03/2012 01:20 1,9 C 89 % 1025,6 hPa 0,0 mm 2,9 km/h (1 Bft) O 270 0 min 0 W/m 0,3 C 1,9 C 7,9 km/h (2 Bft)
05/03/2012 01:30 2,0 C 89 % 1025,7 hPa 0,0 mm 4,3 km/h (1 Bft) O-SO 247 0 min 0 W/m 0,4 C 2,0 C 10,4 km/h (2 Bft)
05/03/2012 01:40 2,0 C 89 % 1025,8 hPa 0,0 mm 2,5 km/h (1 Bft) O 270 0 min 0 W/m 0,4 C 2,0 C 13,0 km/h (3 Bft)
05/03/2012 01:50 2,0 C 89 % 1025,9 hPa 0,0 mm 0,7 km/h (0 Bft) O-SO 247 0 min 0 W/m 0,4 C 2,0 C 3,6 km/h (1 Bft)
05/03/2012 02:02 2,1 C 89 % 1026,0 hPa 0,0 mm 0,0 km/h (0 Bft) O 270 0 min 0 W/m 0,5 C 2,1 C 0,0 km/h (0 Bft)
05/03/2012 02:10 1,9 C 89 % 1026,1 hPa 0,0 mm 1,4 km/h (1 Bft) O-SO 247 0 min 0 W/m 0,3 C 1,9 C 6,5 km/h (2 Bft)
05/03/2012 02:20 1,8 C 88 % 1026,2 hPa 0,0 mm 4,0 km/h (1 Bft) SO 225 0 min 0 W/m 0,0 C 1,8 C 9,4 km/h (2 Bft)
05/03/2012 02:30 1,5 C 89 % 1026,4 hPa 0,0 mm 0,0 km/h (0 Bft) O-SO 247 0 min 0 W/m -0,1 C 1,5 C 0,0 km/h (0 Bft)
05/03/2012 02:40 1,3 C 89 % 1026,4 hPa 0,0 mm 0,0 km/h (0 Bft) O-SO 247 0 min 0 W/m -0,3 C 1,3 C 0,0 km/h (0 Bft)
05/03/2012 02:50 1,1 C 89 % 1026,4 hPa 0,0 mm 0,0 km/h (0 Bft) SO 225 0 min 0 W/m -0,5 C 1,1 C 0,0 km/h (0 Bft)
05/03/2012 03:00 0,9 C 89 % 1026,5 hPa 0,0 mm 0,0 km/h (0 Bft) O-SO 247 0 min 0 W/m -0,7 C 0,9 C 0,0 km/h (0 Bft)
05/03/2012 03:10 0,8 C 90 % 1026,5 hPa 0,0 mm 0,4 km/h (0 Bft) O 270 0 min 0 W/m -0,6 C 0,8 C 0,4 km/h (0 Bft)
05/03/2012 03:20 0,6 C 90 % 1026,6 hPa 0,0 mm 0,7 km/h (0 Bft) O 270 0 min 0 W/m -0,8 C 0,6 C 3,6 km/h (1 Bft)
05/03/2012 03:30 0,5 C 90 % 1026,7 hPa 0,0 mm 1,8 km/h (1 Bft) O-SO 247 0 min 0 W/m -0,9 C 0,5 C 1,8 km/h (1 Bft)
05/03/2012 03:40 0,6 C 90 % 1026,7 hPa 0,0 mm 4,7 km/h (1 Bft) O 270 0 min 0 W/m -0,8 C -0,8 C 10,4 km/h (2 Bft)
05/03/2012 03:50 0,8 C 91 % 1026,9 hPa 0,0 mm 0,0 km/h (0 Bft) O-SO 247 0 min 0 W/m -0,5 C 0,8 C 0,0 km/h (0 Bft)
05/03/2012 04:00 0,9 C 92 % 1026,9 hPa 0,0 mm 1,8 km/h (1 Bft) O-SO 247 0 min 0 W/m -0,2 C 0,9 C 4,3 km/h (1 Bft)
05/03/2012 04:10 1,1 C 91 % 1027,1 hPa 0,0 mm 0,4 km/h (0 Bft) O-SO 247 0 min 0 W/m -0,2 C 1,1 C 3,6 km/h (1 Bft)
05/03/2012 04:20 1,1 C 91 % 1027,0 hPa 0,0 mm 0,4 km/h (0 Bft) O-SO 247 0 min 0 W/m -0,2 C 1,1 C 0,4 km/h (0 Bft)
05/03/2012 04:30 0,9 C 90 % 1027,2 hPa 0,0 mm 1,1 km/h (1 Bft) O-NO 292 0 min 0 W/m -0,6 C 0,9 C 3,2 km/h (1 Bft)
05/03/2012 04:40 0,6 C 90 % 1027,2 hPa 0,0 mm 0,0 km/h (0 Bft) O-SO 247 0 min 0 W/m -0,8 C 0,6 C 0,0 km/h (0 Bft)
05/03/2012 04:50 0,4 C 90 % 1027,3 hPa 0,0 mm 1,1 km/h (1 Bft) O-SO 247 0 min 0 W/m -1,0 C 0,4 C 6,5 km/h (2 Bft)
05/03/2012 05:00 0,3 C 90 % 1027,2 hPa 0,0 mm 0,0 km/h (0 Bft) O-SO 247 0 min 0 W/m -1,1 C 0,3 C 0,0 km/h (0 Bft)
05/03/2012 05:10 0,1 C 90 % 1027,2 hPa 0,0 mm 0,0 km/h (0 Bft) O-SO 247 0 min 0 W/m -1,3 C 0,1 C 0,0 km/h (0 Bft)
05/03/2012 05:20 -0,1 C 91 % 1027,4 hPa 0,0 mm 0,0 km/h (0 Bft) O 270 0 min 0 W/m -1,4 C -0,1 C 0,0 km/h (0 Bft)
05/03/2012 05:30 -0,2 C 91 % 1027,4 hPa 0,0 mm 0,0 km/h (0 Bft) SO 225 0 min 0 W/m -1,5 C -0,2 C 0,0 km/h (0 Bft)
05/03/2012 05:40 -0,4 C 91 % 1027,5 hPa 0,0 mm 0,0 km/h (0 Bft) O 270 0 min 0 W/m -1,7 C -0,4 C 0,0 km/h (0 Bft)
05/03/2012 05:50 -0,6 C 91 % 1027,5 hPa 0,0 mm 0,0 km/h (0 Bft) O-SO 247 0 min 0 W/m -1,9 C -0,6 C 0,0 km/h (0 Bft)
05/03/2012 06:00 -0,6 C 92 % 1027,6 hPa 0,0 mm 0,7 km/h (0 Bft) O 270 0 min 0 W/m -1,7 C -0,6 C 4,0 km/h (1 Bft)
05/03/2012 06:10 -0,6 C 92 % 1027,6 hPa 0,0 mm 0,0 km/h (0 Bft) O-SO 247 0 min 0 W/m -1,7 C -0,6 C 0,0 km/h (0 Bft)
05/03/2012 06:20 -0,6 C 92 % 1027,5 hPa 0,0 mm 0,0 km/h (0 Bft) SO 225 0 min 0 W/m -1,7 C -0,6 C 0,0 km/h (0 Bft)
05/03/2012 06:30 -0,6 C 92 % 1027,6 hPa 0,0 mm 0,0 km/h (0 Bft) O 270 0 min 0 W/m -1,7 C -0,6 C 4,0 km/h (1 Bft)
05/03/2012 06:40 -0,7 C 91 % 1027,6 hPa 0,0 mm 0,0 km/h (0 Bft) O-SO 247 0 min 0 W/m -2,0 C -0,7 C 0,0 km/h (0 Bft)
05/03/2012 06:50 -0,9 C 91 % 1027,7 hPa 0,0 mm 0,0 km/h (0 Bft) S-SO 202 0 min 0 W/m -2,2 C -0,9 C 0,0 km/h (0 Bft)
05/03/2012 07:00 -0,9 C 92 % 1027,6 hPa 0,0 mm 0,0 km/h (0 Bft) SO 225 0 min 0 W/m -2,0 C -0,9 C 0,0 km/h (0 Bft)
05/03/2012 07:10 -0,9 C 92 % 1027,7 hPa 0,0 mm 0,0 km/h (0 Bft) SO 225 0 min 0 W/m -2,0 C -0,9 C 2,9 km/h (1 Bft)
05/03/2012 07:20 -1,1 C 92 % 1027,8 hPa 0,0 mm 0,0 km/h (0 Bft) SO 225 0 min 0 W/m -2,2 C -1,1 C 0,0 km/h (0 Bft)
05/03/2012 07:30 -1,1 C 92 % 1027,8 hPa 0,0 mm 0,0 km/h (0 Bft) O-SO 247 0 min 0 W/m -2,2 C -1,1 C 0,0 km/h (0 Bft)
05/03/2012 07:40 -1,0 C 92 % 1027,8 hPa 0,0 mm 0,0 km/h (0 Bft) SO 225 2 min 0 W/m -2,1 C -1,0 C 0,0 km/h (0 Bft)
05/03/2012 07:50 -0,9 C 92 % 1028,0 hPa 0,0 mm 0,7 km/h (0 Bft) S 180 2 min 0 W/m -2,0 C -0,9 C 3,6 km/h (1 Bft)
05/03/2012 08:00 -0,9 C 92 % 1028,0 hPa 0,0 mm 0,4 km/h (0 Bft) S 180 2 min 0 W/m -2,0 C -0,9 C 0,4 km/h (0 Bft)
05/03/2012 08:10 -0,8 C 92 % 1028,0 hPa 0,0 mm 0,4 km/h (0 Bft) S-SO 202 2 min 0 W/m -1,9 C -0,8 C 3,2 km/h (1 Bft)
05/03/2012 08:20 -0,6 C 93 % 1028,0 hPa 0,0 mm 2,2 km/h (1 Bft) SO 225 2 min 0 W/m -1,6 C -0,6 C 4,3 km/h (1 Bft)
05/03/2012 08:30 -0,2 C 93 % 1028,0 hPa 0,0 mm 1,8 km/h (1 Bft) S-SO 202 2 min 0 W/m -1,2 C -0,2 C 4,3 km/h (1 Bft)
05/03/2012 08:40 0,3 C 93 % 1028,1 hPa 0,0 mm 0,4 km/h (0 Bft) SO 225 2 min 0 W/m -0,7 C 0,3 C 0,4 km/h (0 Bft)
05/03/2012 08:50 0,9 C 93 % 1028,2 hPa 0,0 mm 0,0 km/h (0 Bft) O-SO 247 2 min 0 W/m -0,1 C 0,9 C 0,0 km/h (0 Bft)
05/03/2012 09:00 1,6 C 92 % 1028,4 hPa 0,0 mm 0,7 km/h (0 Bft) O-SO 247 2 min 0 W/m 0,4 C 1,6 C 0,7 km/h (0 Bft)
05/03/2012 09:10 2,3 C 90 % 1028,3 hPa 0,0 mm 1,8 km/h (1 Bft) O-SO 247 2 min 0 W/m 0,8 C 2,3 C 4,3 km/h (1 Bft)
05/03/2012 09:20 2,8 C 88 % 1028,4 hPa 0,0 mm 0,7 km/h (0 Bft) O-NO 292 2 min 0 W/m 1,0 C 2,8 C 3,6 km/h (1 Bft)
05/03/2012 09:30 3,5 C 87 % 1028,3 hPa 0,0 mm 1,4 km/h (1 Bft) SO 225 2 min 0 W/m 1,5 C 3,5 C 1,4 km/h (1 Bft)
05/03/2012 09:40 4,2 C 86 % 1028,4 hPa 0,0 mm 0,0 km/h (0 Bft) O 270 2 min 0 W/m 2,1 C 4,2 C 1,4 km/h (1 Bft)
05/03/2012 09:50 4,8 C 84 % 1028,3 hPa 0,0 mm 3,6 km/h (1 Bft) O-SO 247 2 min 0 W/m 2,3 C 4,8 C 3,6 km/h (1 Bft)
05/03/2012 10:00 5,4 C 83 % 1028,4 hPa 0,0 mm 4,7 km/h (1 Bft) O 270 2 min 0 W/m 2,7 C 4,7 C 10,4 km/h (2 Bft)
05/03/2012 10:10 6,0 C 81 % 1028,4 hPa 0,0 mm 3,2 km/h (1 Bft) O-SO 247 2 min 0 W/m 3,0 C 6,0 C 9,7 km/h (2 Bft)
05/03/2012 10:20 6,6 C 80 % 1028,9 hPa 0,0 mm 1,1 km/h (1 Bft) O-NO 292 2 min 0 W/m 3,4 C 6,6 C 2,9 km/h (1 Bft)
05/03/2012 10:30 7,2 C 78 % 1028,8 hPa 0,0 mm 1,1 km/h (1 Bft) O 270 2 min 0 W/m 3,6 C 7,2 C 1,1 km/h (1 Bft)
05/03/2012 10:40 7,6 C 76 % 1028,9 hPa 0,0 mm 4,3 km/h (1 Bft) O-SO 247 2 min 0 W/m 3,6 C 7,6 C 7,6 km/h (2 Bft)
05/03/2012 10:50 7,9 C 74 % 1029,0 hPa 0,0 mm 2,9 km/h (1 Bft) O-SO 247 2 min 0 W/m 3,6 C 7,9 C 9,0 km/h (2 Bft)
05/03/2012 11:00 8,2 C 74 % 1028,8 hPa 0,0 mm 8,6 km/h (2 Bft) O-NO 292 2 min 0 W/m 3,8 C 6,8 C 12,6 km/h (3 Bft)
05/03/2012 11:10 8,2 C 75 % 1028,7 hPa 0,0 mm 5,4 km/h (2 Bft) N-NO 337 2 min 0 W/m 4,0 C 7,6 C 11,5 km/h (2 Bft)
05/03/2012 11:20 8,9 C 72 % 1028,8 hPa 0,0 mm 7,2 km/h (2 Bft) O-NO 292 2 min 0 W/m 4,1 C 7,9 C 11,2 km/h (2 Bft)
05/03/2012 11:30 9,3 C 70 % 1028,7 hPa 0,0 mm 4,0 km/h (1 Bft) O-NO 292 2 min 0 W/m 4,1 C 9,3 C 7,9 km/h (2 Bft)
05/03/2012 11:40 9,8 C 71 % 1028,7 hPa 0,0 mm 4,0 km/h (1 Bft) O 270 2 min 0 W/m 4,8 C 9,8 C 8,3 km/h (2 Bft)
05/03/2012 11:50 9,6 C 69 % 1028,4 hPa 0,0 mm 4,7 km/h (1 Bft) NO 315 2 min 0 W/m 4,2 C 9,4 C 7,9 km/h (2 Bft)
05/03/2012 12:00 9,4 C 69 % 1028,3 hPa 0,0 mm 0,0 km/h (0 Bft) NO 315 2 min 0 W/m 4,0 C 9,4 C 0,0 km/h (0 Bft)
05/03/2012 12:10 9,5 C 67 % 1028,0 hPa 0,0 mm 4,3 km/h (1 Bft) O 270 2 min 0 W/m 3,7 C 9,5 C 16,6 km/h (3 Bft)
05/03/2012 12:20 9,5 C 63 % 1028,0 hPa 0,0 mm 6,1 km/h (2 Bft) O-NO 292 2 min 0 W/m 2,8 C 8,9 C 15,1 km/h (3 Bft)
05/03/2012 12:30 9,3 C 63 % 1027,8 hPa 0,0 mm 6,1 km/h (2 Bft) O-NO 292 2 min 0 W/m 2,6 C 8,6 C 15,1 km/h (3 Bft)
05/03/2012 12:40 8,8 C 65 % 1027,8 hPa 0,0 mm 3,6 km/h (1 Bft) O 270 2 min 0 W/m 2,6 C 8,8 C 6,8 km/h (2 Bft)
05/03/2012 12:50 9,5 C 64 % 1027,7 hPa 0,0 mm 10,1 km/h (2 Bft) O-SO 247 2 min 0 W/m 3,0 C 8,0 C 10,1 km/h (2 Bft)
05/03/2012 13:00 9,8 C 60 % 1027,8 hPa 0,0 mm 7,9 km/h (2 Bft) SO 225 2 min 0 W/m 2,4 C 8,8 C 13,3 km/h (3 Bft)
05/03/2012 13:10 10,0 C 62 % 1027,8 hPa 0,0 mm 5,8 km/h (2 Bft) NO 315 2 min 0 W/m 3,1 C 9,5 C 11,2 km/h (2 Bft)
05/03/2012 13:20 10,3 C 60 % 1027,6 hPa 0,0 mm 2,5 km/h (1 Bft) O 270 2 min 0 W/m 2,9 C 10,3 C 4,3 km/h (1 Bft)
05/03/2012 13:30 10,1 C 59 % 1027,4 hPa 0,0 mm 8,3 km/h (2 Bft) O 270 2 min 0 W/m 2,5 C 10,1 C 16,2 km/h (3 Bft)
05/03/2012 13:40 9,8 C 63 % 1027,2 hPa 0,0 mm 2,9 km/h (1 Bft) NO 315 2 min 0 W/m 3,1 C 9,8 C 12,6 km/h (3 Bft)
05/03/2012 13:50 10,1 C 58 % 1027,1 hPa 0,0 mm 6,5 km/h (2 Bft) O-SO 247 2 min 0 W/m 2,2 C 10,1 C 10,8 km/h (2 Bft)
05/03/2012 14:00 9,6 C 60 % 1027,0 hPa 0,0 mm 2,2 km/h (1 Bft) O-SO 247 2 min 0 W/m 2,2 C 9,6 C 9,0 km/h (2 Bft)
05/03/2012 14:10 9,7 C 61 % 1026,8 hPa 0,0 mm 8,6 km/h (2 Bft) O-NO 292 2 min 0 W/m 2,5 C 8,5 C 16,2 km/h (3 Bft)
05/03/2012 14:20 9,4 C 60 % 1026,6 hPa 0,0 mm 5,4 km/h (2 Bft) O-NO 292 2 min 0 W/m 2,0 C 9,0 C 11,9 km/h (2 Bft)
05/03/2012 14:30 9,1 C 60 % 1026,3 hPa 0,0 mm 4,7 km/h (1 Bft) O-NO 292 2 min 0 W/m 1,8 C 8,8 C 11,9 km/h (2 Bft)
05/03/2012 14:40 8,9 C 63 % 1026,2 hPa 0,0 mm 2,2 km/h (1 Bft) SO 225 2 min 0 W/m 2,2 C 8,9 C 2,2 km/h (1 Bft)
05/03/2012 14:50 8,6 C 63 % 1026,2 hPa 0,0 mm 2,9 km/h (1 Bft) O 270 2 min 0 W/m 2,0 C 8,6 C 9,7 km/h (2 Bft)
05/03/2012 15:00 8,2 C 66 % 1026,0 hPa 0,0 mm 0,7 km/h (0 Bft) O 270 2 min 0 W/m 2,2 C 8,2 C 3,6 km/h (1 Bft)
05/03/2012 15:10 8,3 C 67 % 1025,8 hPa 0,0 mm 10,4 km/h (2 Bft) NO 315 2 min 0 W/m 2,5 C 6,5 C 10,4 km/h (2 Bft)
05/03/2012 15:20 8,5 C 65 % 1025,6 hPa 0,0 mm 6,8 km/h (2 Bft) SO 225 2 min 0 W/m 2,3 C 7,5 C 10,8 km/h (2 Bft)
05/03/2012 15:30 8,3 C 65 % 1025,4 hPa 0,0 mm 2,9 km/h (1 Bft) O-SO 247 2 min 0 W/m 2,1 C 8,3 C 8,3 km/h (2 Bft)
05/03/2012 15:40 8,6 C 66 % 1025,3 hPa 0,0 mm 4,0 km/h (1 Bft) O-SO 247 2 min 0 W/m 2,6 C 8,6 C 4,0 km/h (1 Bft)
05/03/2012 15:50 8,9 C 63 % 1025,2 hPa 0,0 mm 6,5 km/h (2 Bft) O 270 2 min 0 W/m 2,2 C 8,1 C 7,9 km/h (2 Bft)
_ Min-Heure 07:30 13:50 00:00 - 12:00 - - - - 07:30 07:30 12:00
Minimum _ -1,1 C 58 % 1024,8 hPa - 0,0 km/h (0 Bft) - - - - -2,2 C -1,1 C 0,0 km/h (0 Bft)
_ Max-Heure 13:20 08:50 10:50 15:50 15:10 - - 15:50 15:50 11:40 13:20 12:10
Maximum _ 10,3 C 93 % 1029,0 hPa 0,0 mm 10,4 km/h
NO (2 Bft)
- - 2 min 0 W/m 4,8 C 10,3 C 16,6 km/h
O (3 Bft)
Moyenne _ 3,8 C 81 % 1027,2 hPa #0,0 mm 2,5 km/h (1 Bft) O-SO - #1:40 h 0 W/m 0,8 C 3,7 C 5,3 km/h (1 Bft)
Saint Bonnet de Bellac- Haute Vienne - France